Location: Bourg-d�Oueil
(42.8588°N, 0.4991°E)
Time: 02:36:14
(UTC+00:00)

SJ-6B - Pass Details

Date: 16 June 2021
Orbit: 508 x 581 km, 97.6° (Epoch: 25 July)

Event Time Altitude Azimuth Distance (km) Brightness Sun altitude
Rises 20:09:08 0° 181° (S) 2,786 6.0 -5.3°
Reaches altitude 10° 20:11:21 10° 187° (S) 1,889 5.2 -5.6°
Maximum altitude 20:15:18 45° 261° (W) 788 4.0 -6.2°
Drops below altitude 10° 20:19:13 10° 335° (NNW) 1,881 6.8 -6.7°
Sets 20:21:26 0° 342° (NNW) 2,773 7.6 -7.0°
